Weather Roundup
Issued by NWS

Home | Current Version | Previous Version | Graphics & Text | Print | Product List | Glossary Off
Versions: 1 2 3 4 5 6 7 8 9 10 11 12 13 14 15 16 17 18 19 20 21 22 23 24 25 26 27 28 29 30 31 32 33 34 35 36 37 38 39 40 41 42 43 44 45 46 47 48 49 50

950
NZUS93 KARX 280410
HRRWXR

CURRENT HOURLY OBSERVATIONS ACROSS
MUCH OF THE UPPER MISSISSIPPI VALLEY
NATIONAL WEATHER SERVICE LA CROSSE WI
1100 PM CDT SAT MAY 27 2017


...SOUTHEAST MINNESOTA...


CITY           SKY/WX    TMP DP  RH WIND       PRES   REMARKS
ROCHESTER      CLEAR     57  52  83 SW5       29.88F
ROCHESTER/MAYO MOCLDY    61  51  68 W3        29.87S
WINONA         PTCLDY    55  55 100 CALM      29.85F
AUSTIN         CLEAR     54  50  87 CALM      29.87F
ALBERT LEA     MOCLDY    57  54  88 CALM      29.88S
DODGE CENTER   CLEAR     55  46  71 CALM      29.88S
PRESTON        CLEAR     56  49  79 W5        29.87F
OWATONNA       MOCLDY    57  46  67 S6        29.86F
FARIBAULT      MOCLDY    59  48  67 S5        29.86F
$$

...ELSEWHERE IN MINNESOTA...


CITY           SKY/WX    TMP DP  RH WIND       PRES   REMARKS
MINNEAPOLIS    MOCLDY    67  46  47 SW9       29.83F
INTNL FALLS    CLOUDY    57  43  59 S5        29.71F
DULUTH         CLOUDY    63  43  48 W10       29.77F
RED WING       PTCLDY    54  48  82 CALM      29.84F
REDWOOD FALLS  CLOUDY    61  47  59 SW8       29.84F
MANKATO        MOCLDY    65  46  50 SW7       29.86F
WORTHINGTON    CLEAR     58  52  80 SW10      29.90F
FAIRMONT       CLOUDY    63  49  60 W7        29.88F
$$

...SOUTHWEST WISCONSIN...


CITY           SKY/WX    TMP DP  RH WIND       PRES   REMARKS
LA CROSSE      CLOUDY    60  57  89 CALM      29.85F
PRAIRIE DU CHI CLOUDY    61  58  91 CALM      29.84S
BOSCOBEL       CLOUDY    61  59  93 CALM      29.84S
LONE ROCK      LGT RAIN  63  58  83 CALM      29.82F
PLATTEVILLE    CLOUDY    62  62 100 CALM      29.84F
FORT MC COY    CLOUDY    56  56  99 CALM      29.86F
CAMP DOUGLAS   CLOUDY    57  54  87 W3        29.85S
MAUSTON-NEW LI CLOUDY    62  52  71 CALM      29.84F
VIROQUA        CLOUDY    58  52  79 SW3       29.86F
WIS DELLS      LGT RAIN  63  53  68 CALM      29.84F
$$

...ELSEWHERE IN WISCONSIN...


CITY           SKY/WX    TMP DP  RH WIND       PRES   REMARKS
MILWAUKEE      CLOUDY    65  54  67 SW3       29.85R
MADISON        CLOUDY    65  57  75 N3        29.82F
GREEN BAY      CLOUDY    64  60  87 CALM      29.81R
EAU CLAIRE     CLEAR     55  49  80 SW3       29.84S
BLACK RVR FLS  CLOUDY    58  58 100 CALM      29.85S
MEDFORD        CLOUDY    58  49  71 CALM      29.85S
WAUSAU         LGT RAIN  61  53  75 SW5       29.83F
WIS RAPIDS     CLOUDY    59  55  87 N3        29.86F
MARSHFIELD     CLOUDY    58  52  80 W5        29.84F
RICE LAKE      MOCLDY    57  49  74 S3        29.85F
$$

...NORTHEAST IOWA...


CITY           SKY/WX    TMP DP  RH WIND       PRES   REMARKS
WATERLOO       CLOUDY    59  55  87 W3        29.86R
DUBUQUE        CLOUDY    61  58  90 N5        29.85R
DECORAH        CLOUDY    59  52  77 CALM      29.84F
MASON CITY     MOCLDY    57  51  80 SW5       29.89S
CHARLES CITY   PTCLDY    57  55  94 SW3       29.88R
OELWEIN        CLOUDY    61  57  88 N5        29.86F
$$

...ELSEWHERE IN IOWA...


CITY           SKY/WX    TMP DP  RH WIND       PRES   REMARKS
DES MOINES     PTCLDY    61  55  81 N6        29.86F
IOWA CITY      CLOUDY    63  58  83 CALM      29.85S
FORT DODGE     CLEAR     54  48  82 CALM      29.91R
MARSHALLTOWN   CLOUDY    59  57  93 NW6       29.87S
CEDAR RAPIDS   MOCLDY    59  59 100 N8        29.83F
$$

...NORTHERN ILLINOIS...


CITY           SKY/WX    TMP DP  RH WIND       PRES   REMARKS
CHICAGO-OHARE  CLOUDY    64  53  67 E6        29.84S
CHICAGO-MIDWAY CLOUDY    62  52  69 E3        29.84F
MOLINE         CLOUDY    64  60  87 CALM      29.81F
ROCKFORD       CLOUDY    70  59  68 CALM      29.85R
PEORIA         CLOUDY    68  64  87 E6        29.79F
$$

NOTE: "FAIR" INDICATES FEW OR NO CLOUDS BELOW 12,000 FEET WITH NO
SIGNIFICANT WEATHER AND/OR OBSTRUCTIONS TO VISIBILITY. WIND
SPEEDS ARE IN MILES-PER-HOUR.




USA.gov is the U.S. government's official web portal to all federal, state and local government web resources and services.